Location: Bennemühlen
(52.5740°N, 9.7135°E)
Time: 02:39:46
(UTC+00:00)

Vanguard 2 Rocket - Pass Details

Date: 23 February 2026
Orbit: 553 x 3286 km, 32.9° (Epoch: 12 March)

Event Time Altitude Azimuth Distance (km) Brightness Sun altitude
Rises 10:17:41 0° 225° (SW) 7,099 11.8 25.5°
Reaches altitude 10° 10:23:08 10° 216° (SW) 6,199 11.7 25.8°
Maximum altitude 10:39:14 33° 163° (SSE) 4,380 13.3 26.6°
Drops below altitude 10° 10:52:38 10° 109° (ESE) 5,186 11.2 27.0°
Sets 10:56:38 0° 100° (E) 5,847 11.3 27.2°
